Tracking 32936 objects as of 17-Jan-2026
HD Live streaming from Space Station
objects crossing your sky now

DMSP 5D-2 F13 DEB

Track DMSP 5D-2 F13 DEB now!
10-day predictions


NORAD ID: 42278
Int'l Code: 1995-015GU
Perigee: 709.3 km
Apogee: 743.4 km
Inclination: 98.9 °
Period: 99.2 minutes
Semi major axis: 7097 km
RCS: Unknown
Launch date: March 24, 1995
Source: United States (US)
Launch site: AIR FORCE WESTERN TEST RANGE (AFWTR)

Note: This is SATELLITE DEBRIS
Your satellite tracking list
Your tracking list is empty




NASA's NSSDC Master Catalog

Two Line Element Set (TLE):
1 42278U 95015GU  26016.27710531  .00009328  00000-0  23115-2 0  9990
2 42278  98.8794  40.4235 0024014 350.1864   9.8857 14.51972734545639
Source of the keplerian elements: AFSPC